Content
SEND FEEDBACK

Daily
Averages
Monthly
Summary
United States of America

EUREKA, CALIFORNIA


Home > North America > United States > California
Elevation: 59 feet     Latitude: 40 48N     Longitude: 124 07W

WEATHER
 
SELECT A DAY
Number of Records: 240,922;   Date Range: 1/1/95 - 9/18/14
 
SHARE

PRINT THIS DATA

[ ← Previous Day ]
WEATHER ALMANAC - MARCH 3, 2013
[ Next Day → ]
[ °C ]   °F
Weather ElementAverageHighLow
Temperature46.7 °F51.8 °F (3:27 pm)39 °F (9:53 pm)
Dewpoint45.3 °F46.9 °F (12:53 am)39 °F (8:53 pm)
Humidity95 %100 % (12:30 am)76 % (3:27 pm)
Barometer30.15 in30.20 in (12:53 am)30.11 in (3:20 pm)
Wind Speed3.2 mph9.2 mph (5:13 pm)
Weather ElementAverage
Visibility4.5 mi
Wind DirectionSSE (164.7 °)

Weather ElementTotal
Precipitation0.02 in
Heating Degree Days19.6 (Base 65)
Averaged from 59 records on March 3, 2013
WEATHER CONDITIONS BREAKOUT
WIND DIRECTION BREAKOUT
WEATHER BY HOUR - MARCH 3, 2013
[ °C ]   °F
Local TimeTemperatureDewpointHumidityBarometerVisibilityWind DirectionWind SpeedGust SpeedPrecipitationEventsConditions
12:30 AM46.4 °F46.4 °F100 %30.18 in2.5 miCalmOvercast
12:34 AM46.4 °F46.4 °F100 %30.18 in3.0 miCalmOvercast
12:41 AM46.4 °F46.4 °F100 %30.18 in1.8 miNW (310°)3.5 mphOvercast
12:53 AM46.9 °F46.9 °F100 %30.20 in0.8 miCalmOvercast
1:05 AM48.2 °F46.4 °F93 %30.18 in1.5 miNorth (360°)3.5 mphOvercast
1:14 AM48.2 °F46.4 °F93 %30.18 in2.5 miCalmOvercast
1:27 AM48.2 °F46.4 °F93 %30.18 in2.5 miCalmOvercast
1:37 AM48.2 °F46.4 °F93 %30.18 in2.0 miCalm0.01 inOvercast
1:53 AM48.0 °F46.9 °F96 %30.19 in2.5 miCalm0.01 inOvercast
2:01 AM46.4 °F46.4 °F100 %30.17 in1.8 miCalmOvercast
2:34 AM46.4 °F46.4 °F100 %30.17 in1.8 miNNW (330°)4.6 mphOvercast
2:53 AM46.9 °F46.9 °F100 %30.18 in1.5 miCalmOvercast
3:45 AM46.4 °F46.4 °F100 %30.16 in1.8 miNNW (340°)8.1 mphOvercast
3:53 AM46.9 °F46.0 °F97 %30.18 in2.0 miNorth (350°)8.1 mphOvercast
4:13 AM46.4 °F46.4 °F100 %30.16 in1.8 miNNW (340°)4.6 mphOvercast
4:37 AM46.4 °F46.4 °F100 %30.16 in2.5 miCalmOvercast
4:41 AM46.4 °F46.4 °F100 %30.16 in3.0 miNNE (20°)3.5 mphOvercast
4:53 AM46.9 °F46.9 °F100 %30.18 in3.0 miCalmOvercast
5:08 AM46.4 °F46.4 °F100 %30.16 in1.8 miCalmOvercast
5:22 AM46.4 °F46.4 °F100 %30.16 in0.8 miCalmOvercast
5:34 AM46.4 °F46.4 °F100 %30.15 in1.2 miCalmOvercast
5:53 AM46.9 °F46.0 °F97 %30.18 in1.8 miNNW (330°)4.6 mphOvercast
6:28 AM46.4 °F46.4 °F100 %30.15 in2.0 miCalmOvercast
6:42 AM46.4 °F46.4 °F100 %30.15 in1.5 miCalmOvercast
6:53 AM46.9 °F46.0 °F97 %30.17 in1.2 miCalmOvercast
7:06 AM46.4 °F46.4 °F100 %30.15 in0.5 miCalmFogFog
7:39 AM46.4 °F46.4 °F100 %30.14 in1.5 miCalmOvercast
7:53 AM46.9 °F46.9 °F100 %30.17 in1.0 miCalmOvercast
8:04 AM46.4 °F46.4 °F100 %30.15 in3.0 miSSE (160°)3.5 mphOvercast
8:16 AM46.4 °F46.4 °F100 %30.14 in4.0 miSSE (160°)4.6 mphOvercast
8:53 AM48.0 °F46.9 °F96 %30.17 in10.0 miSSW (200°)8.1 mphOvercast
9:19 AM46.4 °F46.4 °F100 %30.16 in1.8 miWest (280°)5.8 mphOvercast
9:30 AM46.4 °F46.4 °F100 %30.16 in3.0 miWest (270°)4.6 mphOvercast
9:42 AM46.4 °F46.4 °F100 %30.16 in2.5 miWest (280°)4.6 mphOvercast
9:53 AM46.9 °F46.0 °F97 %30.18 in2.5 miWNW (290°)3.5 mphOvercast
10:10 AM46.4 °F46.4 °F100 %30.15 in4.0 miNNW (330°)4.6 mphOvercast
10:53 AM48.0 °F46.0 °F93 %30.17 in5.0 miNW (320°)3.5 mphOvercast
11:53 AM48.0 °F46.0 °F93 %30.17 in7.0 miWest (280°)3.5 mphOvercast
12:28 PM48.2 °F46.4 °F93 %30.14 in9.0 miNW (310°)4.6 mphOvercast
12:53 PM48.9 °F46.0 °F90 %30.15 in10.0 miNNW (330°)4.6 mphOvercast
1:21 PM50.0 °F46.4 °F87 %30.12 in9.0 miNW (310°)4.6 mphOvercast
1:53 PM48.9 °F45.0 °F86 %30.13 in10.0 miNNW (330°)8.1 mphOvercast
2:53 PM51.1 °F45.0 °F80 %30.13 in10.0 miNW (320°)5.8 mphOvercast
3:20 PM50.0 °F44.6 °F82 %30.11 in10.0 miNW (310°)6.9 mphScattered Clouds
3:27 PM51.8 °F44.6 °F76 %30.11 in10.0 miWNW (300°)5.8 mphMostly Cloudy
3:53 PM50.0 °F44.1 °F80 %30.13 in10.0 miNW (310°)6.9 mphOvercast
4:35 PM50.0 °F44.6 °F82 %30.11 in10.0 miWNW (290°)3.5 mphScattered Clouds
4:53 PM48.9 °F44.1 °F83 %30.13 in10.0 miNW (320°)8.1 mphPartly Cloudy
5:13 PM48.2 °F44.6 °F87 %30.12 in8.0 miNNW (330°)9.2 mphMostly Cloudy
5:26 PM48.2 °F44.6 °F87 %30.12 in8.0 miNNW (330°)8.1 mphScattered Clouds
5:53 PM46.9 °F43.0 °F86 %30.14 in5.0 miNNW (330°)4.6 mphScattered Clouds
6:44 PM44.6 °F42.8 °F93 %30.12 in4.0 miCalmScattered Clouds
6:53 PM43.0 °F41.0 °F93 %30.14 in4.0 miCalmPartly Cloudy
7:53 PM41.0 °F39.9 °F96 %30.14 in6.0 miSE (140°)3.5 mphClear
8:53 PM39.9 °F39.0 °F97 %30.14 in6.0 miESE (120°)3.5 mphClear
9:53 PM39.0 °F39.0 °F100 %30.14 in7.0 miSE (130°)4.6 mphClear
10:42 PM41.0 °F39.2 °F93 %30.11 in8.0 miESE (120°)5.8 mphScattered Clouds
10:53 PM42.1 °F41.0 °F96 %30.13 in8.0 miSE (140°)5.8 mphMostly Cloudy
11:53 PM44.1 °F44.1 °F100 %30.12 in9.0 miCalmOvercast
Hourly data recorded from KACV, located miles away from Eureka, California







STORIES FROM OUR PARTNERS